OneWeb SL0245

operational
NORAD ID: 48778 Int'l Des: 2021-045 Owner: ONEWEBN Country: UK Constellation: oneweb
LEOCIRCULARPOLARONEWEB_TYPE

OneWeb SL0245について

説明を読み込み中...

リアルタイム位置

3D地球を読み込み中...

次回通過

高度履歴

Altitude vs Time

uPlot chart will show altitude changes over time

軌道要素

1 48778U 21045M 25351.28949233 .00000123 00000-0 29324-3 0 9991
2 48778 87.8994 295.4817 0001740 70.3897 289.7422 13.15549182220460
Epoch: Dec 17, 2025 • Age: 10 hours

現在のステータス

高度 1228.1 km
速度 7.24 km/s
衛星直下点 -65.71°S, 133.66°E
打ち上げ日 May 28, 2021
運用期間 4.5 years
タイプ internet

技術仕様

分類 Payload
質量 148.00 kg
乾燥質量 140.00 kg
総質量 148.00 kg
長さ 1.30 m
直径 1.00 m
スパン 5.00 m
形状 Trapezoid+2 pan
製造者 ONEWUS
バスタイプ ARROW
フェーズステータス In Orbit
所有者/国 ONEWEBN/UK

大規模コンステレーション

Loading constellations...